YC0ACE-13 Weather Reports


time (UTC)temp
C
wind
direction
speed
KPH
gust
KPH
rain 1hr
cm
rain 24hr
cm
rain mn
cm
humidity
%
barometer
mb
20260504205525 25 164 3.2 3.2 0.00 0.00 0.00 94 1014.2
20260504205024 25 172 3.2 3.2 0.00 0.00 0.00 94 1014.2
20260504204524 25 193 3.2 3.2 0.00 0.00 0.00 94 1014.2
20260504204024 25 199 1.6 1.6 0.00 0.00 0.00 94 1014.2
20260504203524 25 196 1.6 1.6 0.00 0.00 0.00 94 1014.2
20260504203024 25 194 3.2 3.2 0.00 0.00 0.00 94 1014.6
20260504202525 25 188 3.2 3.2 0.00 0.00 0.00 94 1014.6
20260504202025 25 225 1.6 3.2 0.00 0.00 0.00 94 1014.6
20260504201528 25 216 4.8 4.8 0.00 0.00 0.00 94 1014.6
20260504201024 25 219 4.8 4.8 0.00 0.00 0.00 94 1014.6
20260504200525 25 245 3.2 3.2 0.00 0.00 0.00 94 1014.6
20260504200024 25 215 4.8 8.0 0.00 0.00 0.00 94 1014.6
20260504195525 25 214 3.2 3.2 0.00 0.00 0.00 94 1014.9
20260504195025 25 225 3.2 3.2 0.00 0.00 0.00 94 1014.9
20260504194526 25 199 4.8 8.0 0.00 0.00 0.00 94 1014.9
20260504194025 25 195 3.2 3.2 0.00 0.00 0.00 94 1014.9
20260504193525 25 193 1.6 3.2 0.00 0.00 0.00 93 1014.9
20260504193024 25 221 1.6 1.6 0.00 0.00 0.00 93 1014.9
20260504192526 25 189 3.2 4.8 0.00 0.00 0.00 93 1015.2
20260504192025 25 196 1.6 1.6 0.00 0.00 0.00 93 1014.6
20260504191525 25 194 4.8 4.8 0.00 0.00 0.00 93 1014.9
20260504191025 25 199 3.2 3.2 0.00 0.00 0.00 93 1014.9
20260504190525 25 213 3.2 4.8 0.00 0.00 0.00 93 1014.6
20260504190025 25 203 0.0 0.0 0.00 0.00 0.00 93 1014.9
20260504185526 25 200 0.0 0.0 0.00 0.00 0.00 94 1014.9
20260504185025 25 193 0.0 0.0 0.00 0.00 0.00 94 1014.9
20260504184524 25 214 0.0 0.0 0.00 0.00 0.00 93 1014.6
20260504184026 25 206 0.0 0.0 0.00 0.00 0.00 94 1014.9
20260504183524 25 221 0.0 0.0 0.00 0.00 0.00 94 1014.6
20260504183024 25 204 0.0 0.0 0.00 0.00 0.00 94 1014.9
20260504182525 25 210 0.0 0.0 0.00 0.00 0.00 94 1014.9
20260504182024 25 215 0.0 0.0 0.00 0.00 0.00 94 1014.9
20260504181526 25 218 0.0 1.6 0.00 0.00 0.00 94 1015.2
20260504181024 25 217 0.0 0.0 0.00 0.00 0.00 94 1015.2
20260504180525 25 210 0.0 0.0 0.00 0.00 0.00 94 1015.2
20260504180025 25 217 0.0 0.0 0.00 0.00 0.00 94 1015.2
20260504175524 25 223 0.0 0.0 0.00 0.00 0.00 94 1015.2
20260504175025 25 212 0.0 0.0 0.00 0.00 0.00 94 1015.2
20260504174525 25 226 0.0 0.0 0.00 0.00 0.00 94 1015.6
20260504174024 25 242 0.0 0.0 0.00 0.00 0.00 94 1015.6
20260504173530 25 331 0.0 0.0 0.00 0.00 0.00 94 1015.6
20260504173025 25 257 0.0 1.6 0.00 0.00 0.00 94 1015.6
20260504172524 25 242 0.0 0.0 0.00 0.00 0.00 94 1015.6
20260504172024 25 241 0.0 1.6 0.00 0.00 0.00 94 1015.6
20260504171524 25 232 0.0 0.0 0.00 0.00 0.00 93 1015.6
20260504171024 25 213 0.0 0.0 0.00 0.00 0.00 94 1015.6
20260504170525 25 206 0.0 0.0 0.00 0.00 0.00 94 1015.6
20260504151026 25 189 1.6 1.6 0.00 0.00 9.55 93 1015.6
20260504150524 25 217 3.2 3.2 0.00 0.00 9.55 93 1015.2
20260504141025 24 191 1.6 1.6 0.00 0.00 9.55 97 1015.9
20260504140527 24 222 6.4 8.0 0.00 0.00 9.55 97 1015.6
20260504130525 25 139 1.6 1.6 0.13 0.00 9.53 97 1016.3
20260504110525 23 162 1.6 1.6 0.30 0.00 9.37 97 1016.3
20260504100527 22 259 8.0 9.7 7.92 0.00 8.38 96 1015.9
20260504081524 28 19 8.0 11.3 0.00 0.00 0.03 80 1013.9
20260504081025 28 0 8.0 9.7 0.00 0.00 0.03 79 1013.9
20260504080524 28 337 8.0 11.3 0.00 0.00 0.03 81 1013.9
20260504050524 30 81 11.3 14.5 0.00 0.00 0.00 76 1015.2
20260504050025 30 0 11.3 17.7 0.00 0.00 0.00 77 1015.2
20260504045524 30 356 12.9 14.5 0.00 0.00 0.00 76 1014.9
20260504045026 30 4 8.0 11.3 0.00 0.00 0.00 75 1015.2
20260504044524 31 334 8.0 12.9 0.00 0.00 0.00 73 1015.2
20260504044024 31 347 9.7 12.9 0.00 0.00 0.00 71 1015.2
20260504043525 32 15 11.3 14.5 0.00 0.00 0.00 65 1014.9
20260504043024 32 330 1.6 1.6 0.00 0.00 0.00 61 1015.2
20260504042524 32 212 4.8 4.8 0.00 0.00 0.00 61 1015.2
20260504042026 32 223 6.4 8.0 0.00 0.00 0.00 61 1015.2
20260504041524 33 235 0.0 1.6 0.00 0.00 0.00 58 1015.6
20260504041024 32 225 0.0 0.0 0.00 0.00 0.00 61 1015.2
20260504040524 32 281 3.2 3.2 0.00 0.00 0.00 60 1015.6
20260504040024 32 179 4.8 4.8 0.00 0.00 0.00 61 1015.6
20260504035525 32 197 4.8 4.8 0.00 0.00 0.00 60 1015.6
20260504035025 32 192 4.8 4.8 0.00 0.00 0.00 61 1015.6
20260504034525 32 214 8.0 11.3 0.00 0.00 0.00 60 1015.9
20260504034024 32 264 0.0 0.0 0.00 0.00 0.00 62 1015.9
20260504033525 32 187 6.4 8.0 0.00 0.00 0.00 63 1015.9
20260504033025 32 202 1.6 1.6 0.00 0.00 0.00 62 1015.9
20260504032524 33 104 4.8 8.0 0.00 0.00 0.00 61 1016.3
20260504032024 32 19 1.6 3.2 0.00 0.00 0.00 61 1016.3
20260504031524 32 275 1.6 1.6 0.00 0.00 0.00 63 1016.3
20260504031024 32 110 11.3 12.9 0.00 0.00 0.00 61 1016.3
20260504030525 32 153 1.6 1.6 0.00 0.00 0.00 64 1016.3
20260504030024 32 163 1.6 3.2 0.00 0.00 0.00 64 1016.3
20260504025525 32 124 3.2 4.8 0.00 0.00 0.00 65 1016.6
20260504025027 31 140 4.8 4.8 0.00 0.00 0.00 66 1016.3
20260504024524 31 200 0.0 0.0 0.00 0.00 0.00 68 1016.6
20260504024025 31 123 4.8 4.8 0.00 0.00 0.00 68 1016.6
20260504023525 31 169 3.2 3.2 0.00 0.00 0.00 68 1016.6
20260504023024 31 143 3.2 3.2 0.00 0.00 0.00 68 1016.6
20260504022524 30 181 6.4 8.0 0.00 0.00 0.00 69 1016.6
20260504022024 30 207 4.8 4.8 0.00 0.00 0.00 70 1016.6
20260504021524 30 215 6.4 8.0 0.00 0.00 0.00 70 1016.6
20260504021025 30 189 4.8 4.8 0.00 0.00 0.00 70 1016.6
20260504020525 30 154 6.4 8.0 0.00 0.00 0.00 69 1016.6
20260504020025 30 169 3.2 3.2 0.00 0.00 0.00 71 1016.6
20260504015525 30 183 8.0 9.7 0.00 0.00 0.00 71 1016.6
20260504015024 30 280 1.6 1.6 0.00 0.00 0.00 72 1016.6
20260504014524 30 221 4.8 4.8 0.00 0.00 0.00 71 1016.6
20260504014024 29 188 1.6 1.6 0.00 0.00 0.00 74 1016.6
20260504013524 29 158 6.4 8.0 0.00 0.00 0.00 74 1016.6
20260504013025 28 175 4.8 4.8 0.00 0.00 0.00 76 1016.6
20260504012524 29 200 4.8 4.8 0.00 0.00 0.00 75 1016.6
20260504012025 29 149 3.2 3.2 0.00 0.00 0.00 74 1016.3
20260504011524 30 228 1.6 1.6 0.00 0.00 0.00 74 1016.3
20260504011024 30 192 3.2 3.2 0.00 0.00 0.00 75 1016.6
20260504010524 28 333 1.6 3.2 0.00 0.00 0.00 77 1016.6
20260504010025 28 213 1.6 1.6 0.00 0.00 0.00 80 1016.6
20260504005525 28 224 3.2 3.2 0.00 0.00 0.00 80 1016.3
20260504005024 27 243 6.4 8.0 0.00 0.00 0.00 80 1016.3
20260504004524 27 224 4.8 4.8 0.00 0.00 0.00 81 1016.3
20260504004028 27 220 1.6 1.6 0.00 0.00 0.00 82 1016.3
20260504003524 27 202 6.4 8.0 0.00 0.00 0.00 81 1016.3
20260504003024 27 265 3.2 3.2 0.00 0.00 0.00 82 1015.9
20260504002524 27 231 4.8 4.8 0.00 0.00 0.00 83 1015.9
20260504002024 27 202 4.8 4.8 0.00 0.00 0.00 84 1015.9
20260504001524 27 200 4.8 8.0 0.00 0.00 0.00 83 1015.9
20260504001024 26 201 3.2 3.2 0.00 0.00 0.00 85 1015.6
20260504000525 26 240 4.8 4.8 0.00 0.00 0.00 85 1015.9
20260504000025 26 222 4.8 4.8 0.00 0.00 0.00 85 1015.9
20260503235525 26 247 3.2 3.2 0.00 0.00 0.00 85 1015.6
20260503235024 26 238 1.6 3.2 0.00 0.00 0.00 85 1015.6
20260503234524 26 216 3.2 3.2 0.00 0.00 0.00 85 1015.9
20260503234024 26 213 1.6 1.6 0.00 0.00 0.00 85 1016.3
20260503233524 26 211 0.0 0.0 0.00 0.00 0.00 85 1015.9
20260503233024 26 209 4.8 4.8 0.00 0.00 0.00 85 1015.9
20260503232524 26 212 0.0 0.0 0.00 0.00 0.00 86 1015.9
20260503232024 26 253 1.6 1.6 0.00 0.00 0.00 86 1015.9
20260503231524 26 231 3.2 3.2 0.00 0.00 0.00 87 1015.6
20260503231025 26 215 0.0 0.0 0.00 0.00 0.00 88 1015.6
20260503230524 26 237 1.6 1.6 0.00 0.00 0.00 88 1015.2
20260503230026 26 230 1.6 3.2 0.00 0.00 0.00 88 1015.2
20260503225524 26 234 3.2 3.2 0.00 0.00 0.00 88 1014.9
20260503225024 26 224 4.8 4.8 0.00 0.00 0.00 89 1014.9
20260503224524 26 184 3.2 3.2 0.00 0.00 0.00 89 1014.9
20260503224034 26 213 1.6 3.2 0.00 0.00 0.00 89 1014.9
20260503223524 25 215 1.6 1.6 0.00 0.00 0.00 89 1014.9
20260503223024 25 205 0.0 0.0 0.00 0.00 0.00 89 1014.9
20260503222524 26 207 0.0 1.6 0.00 0.00 0.00 89 1014.9
20260503222025 26 219 0.0 0.0 0.00 0.00 0.00 89 1014.9
20260503221524 26 212 0.0 0.0 0.00 0.00 0.00 88 1014.9
20260503221025 26 176 0.0 1.6 0.00 0.00 0.00 88 1014.9
20260503220524 26 208 1.6 1.6 0.00 0.00 0.00 88 1014.9
20260503220024 25 213 1.6 1.6 0.00 0.00 0.00 89 1014.9
20260503215524 25 245 1.6 1.6 0.00 0.00 0.00 89 1014.6
20260503215024 25 226 0.0 1.6 0.00 0.00 0.00 89 1014.6
20260503214525 26 209 0.0 0.0 0.00 0.00 0.00 88 1014.9
20260503214024 26 219 0.0 1.6 0.00 0.00 0.00 88 1014.6
20260503213524 26 218 0.0 0.0 0.00 0.00 0.00 88 1014.6
20260503213024 26 196 1.6 1.6 0.00 0.00 0.00 88 1014.6
20260503212113 26 199 3.2 3.2 0.00 0.00 0.00 88 1014.6
20260503211524 26 228 4.8 4.8 0.00 0.00 0.00 88 1014.9
20260503211024 26 200 4.8 4.8 0.00 0.00 0.00 88 1014.6
20260503210525 26 254 3.2 3.2 0.00 0.00 0.00 88 1014.9
20260503210025 26 193 3.2 3.2 0.00 0.00 0.00 88 1014.9